Charlotte, MI

8:15 PM EDT on May 27, 2018 (GMT -0400)
Charlotte

Weather History for KFPK - May, 2014

Change the Weather History Date:

Sunday, May 25, 2014

  Actual Average (KLAN) Record (KLAN)
Temperature  
Mean Temperature 64 °F 61 °F  
Max Temperature 80 °F 72 °F 89 °F (1977)
Min Temperature 47 °F 50 °F 29 °F (1992)
Degree Days  
Heating Degree Days 2 6  
Month to date heating degree days 228  
Since 1 July heating degree days 6626  
Cooling Degree Days 0 2  
Month to date cooling degree days 22  
Year to date cooling degree days 29  
Growing Degree Days 14 (Base 50)    
Moisture  
Dew Point 49 °F    
Average Humidity 60    
Maximum Humidity 96    
Minimum Humidity 31    
Precipitation  
Precipitation 0.00 in 0.11 in 1.19 in (1950)
Month to date precipitation 2.68  
Year to date precipitation 10.89  
Snow  
Snow 0.00 in 0.00 in T in (1979)
Month to date snowfall 0.0  
Since 1 July snowfall 51.1  
Snow Depth -    
Sea Level Pressure  
Sea Level Pressure 30.12 in    
Wind  
Wind Speed 2 mph (SSW)    
Max Wind Speed 10 mph    
Max Gust Speed 16 mph    
Visibility 10 miles    
Events      
T = Trace of Precipitation, MM = Missing Value Source: NWS Daily Summary

Daily Weather History Graph

Daily Weather History Graph

Search for Another Location

Airport or City:

Astronomy

May. 25, 2014 Rise Set
Actual Time 6:08 AM EDT 9:04 PM EDT
Civil Twilight 5:35 AM EDT 9:37 PM EDT
Nautical Twilight 4:52 AM EDT 10:20 PM EDT
Astronomical Twilight 4:03 AM EDT 11:10 PM EDT
Moon 4:17 AM EDT (5/25) 6:00 PM EDT (5/25)
Length of Visible Light 16h 02m
Length of Day
14h 55m
Waning Crescent, 10% of the Moon is Illuminated
May 25
Waning Crescent
May 28
New
Jun 5
First Quarter
Jun 13
Full
Jun 19
Last Quarter

Hourly Weather History & Observations

Time (EDT) Temp. Dew Point Humidity Pressure Visibility Wind Dir Wind Speed Gust Speed Precip Events Conditions
12:15 AM 57.0 °F 49.3 °F 75% 30.15 in 10.0 mi Calm Calm - N/A   Clear
12:35 AM 55.6 °F 49.5 °F 80% 30.15 in 10.0 mi Calm Calm - N/A   Clear
12:55 AM 55.2 °F 49.3 °F 80% 30.15 in 10.0 mi Calm Calm - N/A   Clear
1:15 AM 54.0 °F 48.4 °F 81% 30.15 in 10.0 mi Calm Calm - N/A   Clear
1:35 AM 53.2 °F 49.3 °F 86% 30.15 in 10.0 mi Calm Calm - N/A   Clear
2:15 AM 52.2 °F 48.7 °F 88% 30.15 in 10.0 mi Calm Calm - N/A   Clear
2:35 AM 51.6 °F 49.5 °F 92% 30.15 in 10.0 mi Calm Calm - N/A   Clear
2:55 AM 51.3 °F 48.6 °F 90% 30.14 in 10.0 mi Calm Calm - N/A   Clear
3:15 AM 49.8 °F 47.8 °F 93% 30.14 in 10.0 mi Calm Calm - N/A   Clear
3:35 AM 50.9 °F 49.1 °F 94% 30.14 in 10.0 mi Calm Calm - N/A   Clear
3:55 AM 49.8 °F 48.0 °F 94% 30.14 in 10.0 mi Calm Calm - N/A   Clear
4:15 AM 50.0 °F 48.6 °F 95% 30.14 in 10.0 mi Calm Calm - N/A   Clear
4:35 AM 50.0 °F 48.6 °F 95% 30.14 in 10.0 mi Calm Calm - N/A   Clear
4:55 AM 49.1 °F 47.3 °F 93% 30.14 in 7.0 mi Calm Calm - N/A   Clear
5:15 AM 48.9 °F 47.3 °F 94% 30.14 in 10.0 mi Calm Calm - N/A   Clear
5:35 AM 48.4 °F 47.3 °F 96% 30.15 in 10.0 mi SSE 3.5 mph - N/A   Clear
5:55 AM 48.2 °F 46.6 °F 94% 30.16 in 7.0 mi Calm Calm - N/A   Clear
6:15 AM 47.5 °F 46.0 °F 95% 30.16 in 5.0 mi Calm Calm - N/A   Clear
6:35 AM 48.4 °F 46.9 °F 95% 30.16 in 4.0 mi Calm Calm - N/A   Clear
6:55 AM 47.7 °F 46.4 °F 95% 30.16 in 5.0 mi Calm Calm - N/A   Clear
7:15 AM 49.8 °F 48.6 °F 95% 30.16 in 7.0 mi Calm Calm - N/A   Clear
7:35 AM 52.7 °F 51.1 °F 94% 30.16 in 7.0 mi Calm Calm - N/A   Clear
7:55 AM 55.0 °F 51.4 °F 88% 30.16 in 10.0 mi Calm Calm - N/A   Clear
8:15 AM 59.0 °F 51.6 °F 76% 30.16 in 10.0 mi Calm Calm - N/A   Clear
8:35 AM 61.7 °F 51.8 °F 70% 30.16 in 10.0 mi Calm Calm - N/A   Clear
8:55 AM 64.0 °F 52.0 °F 65% 30.17 in 10.0 mi Calm Calm - N/A   Clear
9:15 AM 67.1 °F 50.5 °F 55% 30.17 in 10.0 mi South 3.5 mph - N/A   Clear
9:35 AM 69.1 °F 51.1 °F 53% 30.17 in 10.0 mi South 5.8 mph - N/A   Clear
9:55 AM 70.7 °F 52.0 °F 51% 30.17 in 10.0 mi South 4.6 mph - N/A   Clear
10:15 AM 72.1 °F 50.7 °F 47% 30.17 in 10.0 mi WSW 4.6 mph - N/A   Clear
11:15 AM 74.7 °F 51.8 °F 45% 30.16 in 10.0 mi SSW 6.9 mph - N/A   Clear
11:35 AM 74.8 °F 49.5 °F 41% 30.16 in 10.0 mi SW 6.9 mph - N/A   Clear
11:55 AM 75.6 °F 49.5 °F 40% 30.15 in 10.0 mi South 5.8 mph - N/A   Clear
12:15 PM 75.7 °F 48.7 °F 38% 30.15 in 10.0 mi SW 6.9 mph - N/A   Clear
12:35 PM 76.6 °F 49.6 °F 39% 30.15 in 10.0 mi SW 6.9 mph - N/A   Clear
12:55 PM 77.5 °F 49.6 °F 37% 30.14 in 10.0 mi South 5.8 mph - N/A   Clear
1:15 PM 77.4 °F 50.0 °F 38% 30.14 in 10.0 mi SSW 8.1 mph - N/A   Clear
1:35 PM 77.2 °F 47.8 °F 35% 30.13 in 10.0 mi SSW 9.2 mph - N/A   Clear
1:55 PM 77.9 °F 47.1 °F 34% 30.13 in 10.0 mi SW 3.5 mph - N/A   Clear
2:15 PM 78.8 °F 48.6 °F 34% 30.13 in 10.0 mi South 3.5 mph - N/A   Clear
2:35 PM 78.6 °F 49.1 °F 35% 30.12 in 10.0 mi South 10.4 mph 16.1 mph N/A   Clear
2:55 PM 78.4 °F 47.7 °F 34% 30.12 in 10.0 mi South 3.5 mph 9.2 mph N/A   Clear
3:15 PM 79.2 °F 47.8 °F 33% 30.12 in 10.0 mi South 5.8 mph - N/A   Clear
3:35 PM 79.7 °F 46.9 °F 32% 30.11 in 10.0 mi WSW 6.9 mph - N/A   Clear
3:55 PM 79.7 °F 47.5 °F 32% 30.11 in 10.0 mi SSW 8.1 mph - N/A   Clear
4:15 PM 79.9 °F 48.0 °F 33% 30.10 in 10.0 mi Calm Calm - N/A   Clear
4:35 PM 80.8 °F 49.1 °F 33% 30.09 in 10.0 mi SSW 10.4 mph - N/A   Clear
4:55 PM 79.7 °F 47.3 °F 32% 30.09 in 10.0 mi SSE 9.2 mph - N/A   Clear
5:35 PM 80.4 °F 47.1 °F 31% 30.08 in 10.0 mi West 4.6 mph - N/A   Clear
5:55 PM 79.9 °F 47.5 °F 32% 30.07 in 10.0 mi WSW 8.1 mph - N/A   Clear
6:15 PM 79.7 °F 47.7 °F 32% 30.07 in 10.0 mi SSW 4.6 mph - N/A   Clear
6:35 PM 79.7 °F 47.7 °F 32% 30.06 in 10.0 mi SSW 3.5 mph - N/A   Clear
6:55 PM 79.0 °F 46.8 °F 32% 30.06 in 10.0 mi SSW 5.8 mph - N/A   Clear
7:15 PM 78.8 °F 47.7 °F 33% 30.05 in 7.0 mi South 5.8 mph - N/A   Clear
7:35 PM 78.3 °F 47.8 °F 34% 30.05 in 10.0 mi Calm Calm - N/A   Clear
7:55 PM 77.4 °F 48.7 °F 36% 30.05 in 10.0 mi SSW 4.6 mph - N/A   Clear
8:15 PM 76.8 °F 45.9 °F 33% 30.05 in 10.0 mi South 3.5 mph - N/A   Clear
8:35 PM 74.8 °F 46.9 °F 37% 30.05 in 10.0 mi SSW 3.5 mph - N/A   Clear
8:55 PM 73.2 °F 49.1 °F 42% 30.05 in 10.0 mi Calm Calm - N/A   Clear
9:15 PM 69.6 °F 50.9 °F 51% 30.05 in 10.0 mi WNW 3.5 mph - N/A   Clear
9:35 PM 68.0 °F 50.2 °F 53% 30.05 in 10.0 mi Calm Calm - N/A   Clear
9:55 PM 67.8 °F 50.5 °F 54% 30.06 in 10.0 mi Calm Calm - N/A   Clear
10:15 PM 62.8 °F 51.3 °F 66% 30.06 in 10.0 mi Calm Calm - N/A   Clear
10:35 PM 64.0 °F 51.3 °F 63% 30.06 in 10.0 mi Calm Calm - N/A   Clear
10:55 PM 63.9 °F 52.7 °F 67% 30.07 in 10.0 mi Calm Calm - N/A   Clear
11:15 PM 61.0 °F 52.7 °F 74% 30.06 in 10.0 mi Calm Calm - N/A   Clear
11:35 PM 58.5 °F 52.0 °F 79% 30.07 in 10.0 mi Calm Calm - N/A   Clear
11:55 PM 59.0 °F 53.1 °F 81% 30.06 in 10.0 mi Calm Calm - N/A   Clear